User: anonymous   Login
Location: ???????
(60.4260°N, 46.9069°E)
Time: 06:37:55
(UTC+00:00)
Language:

Tiangong - Orbit

View from above orbital plane
View from above orbital plane
View from above satellite
View from above satellite

Ground track
Ground track

The orbit data is extracted from the following two-line orbital elements,

1 48274U 21035A   21209.77873953  .00008030  00000-0  90401-4 0  9998
2 48274  41.4701  29.3450 0009153 255.4417 119.2317 15.62734928 14201
Epoch (UTC): 28 July 2021 18:41:23
Eccentricity: 0.0009153
inclination: 41.4701°
perigee height: 373 km
apogee height: 386 km
right ascension of ascending node: 29.3450°
argument of perigee: 255.4417°
revolutions per day: 15.62734928
mean anomaly at epoch: 119.2317°
orbit number at epoch: 1420

The dashed part of the orbit path shows where the satellite is in the earth's shadow,  

DLR